Time,TemperatureF,DewpointF,PressureIn,WindDirection,WindDirectionDegrees,WindSpeedMPH,WindSpeedGustMPH,Humidity,HourlyPrecipIn,Conditions,Clouds,dailyrainin,SoftwareType,DateUTC
2013-07-03 00:02:00,73.5,69.0,29.99,SSW,195,0.0,2.0,85,0.00,,,0.01,weatherlink.com 1.10,2013-07-03 04:02:00,
2013-07-03 00:17:00,73.2,69.0,29.99,WSW,239,0.0,1.0,86,0.00,,,0.01,weatherlink.com 1.10,2013-07-03 04:17:00,
2013-07-03 00:32:00,72.8,69.0,29.99,WSW,242,0.0,1.0,87,0.00,,,0.01,weatherlink.com 1.10,2013-07-03 04:32:00,
2013-07-03 00:47:00,72.6,69.0,30.00,WSW,242,0.0,1.0,88,0.00,,,0.00,weatherlink.com 1.10,2013-07-03 04:47:00,
2013-07-03 01:02:00,72.5,69.0,30.00,WSW,242,0.0,0.0,88,0.00,,,0.00,weatherlink.com 1.10,2013-07-03 05:02:00,
2013-07-03 01:17:00,72.2,69.0,29.99,WSW,242,0.0,1.0,88,0.00,,,0.00,weatherlink.com 1.10,2013-07-03 05:17:00,
2013-07-03 01:32:00,72.0,69.0,29.99,WSW,242,0.0,0.0,89,0.00,,,0.00,weatherlink.com 1.10,2013-07-03 05:32:00,
2013-07-03 01:47:00,72.0,69.0,30.00,WSW,244,0.0,1.0,89,0.00,,,0.00,weatherlink.com 1.10,2013-07-03 05:47:00,
2013-07-03 02:02:00,71.7,69.0,29.99,WSW,244,0.0,1.0,90,0.00,,,0.00,weatherlink.com 1.10,2013-07-03 06:02:00,
2013-07-03 02:47:00,70.9,68.0,29.99,WSW,244,0.0,1.0,91,0.00,,,0.00,weatherlink.com 1.10,2013-07-03 06:47:00,
2013-07-03 03:02:00,71.1,68.0,29.99,WSW,244,0.0,1.0,91,0.00,,,0.00,weatherlink.com 1.10,2013-07-03 07:02:00,
2013-07-03 03:17:00,71.2,69.0,30.00,WSW,244,0.0,1.0,91,0.00,,,0.00,weatherlink.com 1.10,2013-07-03 07:17:00,
2013-07-03 03:47:00,71.0,68.0,29.99,WSW,244,0.0,1.0,91,0.00,,,0.00,weatherlink.com 1.10,2013-07-03 07:47:00,
2013-07-03 04:32:00,70.7,68.0,30.00,WSW,244,0.0,0.0,91,0.00,,,0.00,weatherlink.com 1.10,2013-07-03 08:32:00,
2013-07-03 04:47:00,70.3,68.0,30.01,WSW,244,0.0,1.0,92,0.00,,,0.00,weatherlink.com 1.10,2013-07-03 08:47:00,
2013-07-03 05:02:00,70.1,68.0,30.01,WSW,244,0.0,0.0,92,0.00,,,0.00,weatherlink.com 1.10,2013-07-03 09:02:00,
2013-07-03 05:17:00,70.0,68.0,30.01,WSW,244,0.0,0.0,93,0.00,,,0.00,weatherlink.com 1.10,2013-07-03 09:17:00,
2013-07-03 05:32:00,69.9,68.0,30.02,WSW,244,0.0,0.0,93,0.00,,,0.00,weatherlink.com 1.10,2013-07-03 09:32:00,
2013-07-03 05:47:00,69.9,68.0,30.02,WSW,244,0.0,0.0,94,0.00,,,0.00,weatherlink.com 1.10,2013-07-03 09:47:00,
2013-07-03 06:02:00,69.7,68.0,30.02,WSW,244,0.0,0.0,94,0.00,,,0.00,weatherlink.com 1.10,2013-07-03 10:02:00,
2013-07-03 06:17:00,69.6,68.0,30.03,WSW,244,0.0,0.0,94,0.00,,,0.00,weatherlink.com 1.10,2013-07-03 10:17:00,
2013-07-03 06:32:00,69.5,68.0,30.03,WSW,244,0.0,0.0,94,0.00,,,0.00,weatherlink.com 1.10,2013-07-03 10:32:00,
2013-07-03 06:47:00,69.5,68.0,30.04,WSW,244,0.0,0.0,94,0.00,,,0.00,weatherlink.com 1.10,2013-07-03 10:47:00,
2013-07-03 07:02:00,69.5,68.0,30.04,WSW,244,0.0,0.0,94,0.00,,,0.00,weatherlink.com 1.10,2013-07-03 11:02:00,
2013-07-03 07:17:00,69.4,68.0,30.05,WSW,244,0.0,0.0,94,0.00,,,0.00,weatherlink.com 1.10,2013-07-03 11:17:00,
2013-07-03 07:47:00,69.5,68.0,30.06,WSW,244,0.0,0.0,95,0.00,,,0.00,weatherlink.com 1.10,2013-07-03 11:47:00,
2013-07-03 08:02:00,69.8,68.0,30.06,WSW,244,0.0,0.0,95,0.00,,,0.00,weatherlink.com 1.10,2013-07-03 12:02:00,
2013-07-03 08:17:00,70.3,68.0,30.07,South,186,0.0,2.0,93,0.00,,,0.00,weatherlink.com 1.10,2013-07-03 12:17:00,
2013-07-03 08:32:00,71.0,69.0,30.07,South,181,0.0,2.0,92,0.00,,,0.00,weatherlink.com 1.10,2013-07-03 12:32:00,
2013-07-03 08:48:00,71.7,69.0,30.08,West,267,2.0,3.0,91,0.00,,,0.00,weatherlink.com 1.10,2013-07-03 12:48:00,
2013-07-03 09:03:00,72.5,69.0,30.08,West,263,0.0,3.0,89,0.00,,,0.00,weatherlink.com 1.10,2013-07-03 13:03:00,
2013-07-03 09:18:00,73.2,69.0,30.09,South,179,2.0,5.0,86,0.00,,,0.00,weatherlink.com 1.10,2013-07-03 13:18:00,
2013-07-03 09:33:00,73.7,69.0,30.09,South,186,1.0,5.0,85,0.00,,,0.00,weatherlink.com 1.10,2013-07-03 13:33:00,
2013-07-03 09:48:00,73.8,69.0,30.09,South,175,0.0,3.0,85,0.00,,,0.00,weatherlink.com 1.10,2013-07-03 13:48:00,
2013-07-03 10:03:00,74.8,69.0,30.09,South,184,1.0,3.0,83,0.00,,,0.00,weatherlink.com 1.10,2013-07-03 14:03:00,
2013-07-03 10:18:00,76.6,70.0,30.09,WNW,302,0.0,3.0,80,0.00,,,0.00,weatherlink.com 1.10,2013-07-03 14:18:00,
2013-07-03 10:33:00,77.0,70.0,30.09,SSW,196,1.0,2.0,78,0.00,,,0.00,weatherlink.com 1.10,2013-07-03 14:33:00,
2013-07-03 11:03:00,77.8,69.0,30.08,South,172,1.0,3.0,75,0.00,,,0.00,weatherlink.com 1.10,2013-07-03 15:03:00,
2013-07-03 11:18:00,77.7,69.0,30.07,South,180,2.0,7.0,75,0.00,,,0.00,weatherlink.com 1.10,2013-07-03 15:18:00,
2013-07-03 11:33:00,78.2,70.0,30.07,South,184,2.0,3.0,75,0.00,,,0.00,weatherlink.com 1.10,2013-07-03 15:33:00,
2013-07-03 11:48:00,79.3,70.0,30.07,SSW,192,0.0,6.0,73,0.00,,,0.00,weatherlink.com 1.10,2013-07-03 15:48:00,
2013-07-03 12:03:00,80.3,70.0,30.07,South,171,0.0,5.0,71,0.00,,,0.00,weatherlink.com 1.10,2013-07-03 16:03:00,
2013-07-03 12:33:00,79.5,68.0,30.07,South,169,3.0,6.0,68,0.00,,,0.00,weatherlink.com 1.10,2013-07-03 16:33:00,
2013-07-03 12:48:00,79.4,68.0,30.07,South,174,2.0,6.0,69,0.00,,,0.00,weatherlink.com 1.10,2013-07-03 16:48:00,
2013-07-03 13:03:00,79.1,68.0,30.07,SSE,161,3.0,5.0,69,0.00,,,0.00,weatherlink.com 1.10,2013-07-03 17:03:00,
2013-07-03 13:18:00,79.6,69.0,30.07,South,186,2.0,7.0,69,0.00,,,0.00,weatherlink.com 1.10,2013-07-03 17:18:00,
2013-07-03 13:33:00,80.6,69.0,30.07,SSE,155,4.0,8.0,68,0.00,,,0.00,weatherlink.com 1.10,2013-07-03 17:33:00,
2013-07-03 13:48:00,80.4,69.0,30.07,South,178,2.0,5.0,68,0.00,,,0.00,weatherlink.com 1.10,2013-07-03 17:48:00,
2013-07-03 14:03:00,80.0,69.0,30.07,South,185,4.0,6.0,69,0.00,,,0.00,weatherlink.com 1.10,2013-07-03 18:03:00,
2013-07-03 14:18:00,80.3,69.0,30.07,South,182,6.0,7.0,68,0.00,,,0.00,weatherlink.com 1.10,2013-07-03 18:18:00,
2013-07-03 14:48:00,80.3,69.0,30.07,South,182,2.0,6.0,69,0.00,,,0.00,weatherlink.com 1.10,2013-07-03 18:48:00,
2013-07-03 15:33:00,79.8,69.0,30.06,South,191,4.0,5.0,70,0.00,,,0.00,weatherlink.com 1.10,2013-07-03 19:33:00,
2013-07-03 15:48:00,79.3,70.0,30.06,South,186,2.0,5.0,72,0.00,,,0.00,weatherlink.com 1.10,2013-07-03 19:48:00,
2013-07-03 16:03:00,80.0,70.0,30.06,WNW,291,0.0,4.0,72,0.00,,,0.00,weatherlink.com 1.10,2013-07-03 20:03:00,
2013-07-03 16:18:00,81.0,70.0,30.06,West,261,0.0,4.0,70,0.00,,,0.00,weatherlink.com 1.10,2013-07-03 20:18:00,
2013-07-03 16:33:00,81.0,71.0,30.05,SSW,198,0.0,4.0,71,0.00,,,0.00,weatherlink.com 1.10,2013-07-03 20:33:00,
2013-07-03 16:48:00,80.9,70.0,30.05,WNW,290,0.0,3.0,70,0.00,,,0.00,weatherlink.com 1.10,2013-07-03 20:48:00,
2013-07-03 17:18:00,79.3,69.0,30.05,SSW,192,4.0,6.0,71,0.00,,,0.00,weatherlink.com 1.10,2013-07-03 21:18:00,
2013-07-03 17:33:00,79.1,69.0,30.04,South,186,1.0,5.0,72,0.00,,,0.00,weatherlink.com 1.10,2013-07-03 21:33:00,
2013-07-03 17:48:00,79.0,68.0,30.04,South,170,0.0,4.0,70,0.00,,,0.00,weatherlink.com 1.10,2013-07-03 21:48:00,
2013-07-03 18:03:00,78.8,69.0,30.04,South,182,1.0,4.0,71,0.00,,,0.00,weatherlink.com 1.10,2013-07-03 22:03:00,
2013-07-03 18:18:00,78.7,69.0,30.04,South,180,0.0,3.0,73,0.00,,,0.00,weatherlink.com 1.10,2013-07-03 22:18:00,
2013-07-03 18:33:00,78.6,70.0,30.04,South,180,2.0,3.0,74,0.00,,,0.00,weatherlink.com 1.10,2013-07-03 22:33:00,
2013-07-03 18:48:00,78.5,70.0,30.04,South,189,1.0,2.0,75,0.00,,,0.00,weatherlink.com 1.10,2013-07-03 22:48:00,
2013-07-03 19:18:00,77.9,70.0,30.04,SSE,167,1.0,3.0,77,0.00,,,0.00,weatherlink.com 1.10,2013-07-03 23:18:00,
2013-07-03 20:04:00,77.3,70.0,30.05,South,188,0.0,1.0,78,0.00,,,0.00,weatherlink.com 1.10,2013-07-04 00:04:00,
2013-07-03 20:19:00,77.3,70.0,30.05,SSW,194,0.0,1.0,79,0.00,,,0.00,weatherlink.com 1.10,2013-07-04 00:19:00,
2013-07-03 20:34:00,77.1,70.0,30.05,South,191,0.0,2.0,79,0.00,,,0.00,weatherlink.com 1.10,2013-07-04 00:34:00,
2013-07-03 20:49:00,76.9,70.0,30.05,South,191,0.0,1.0,80,0.00,,,0.00,weatherlink.com 1.10,2013-07-04 00:49:00,
2013-07-03 21:04:00,76.6,70.0,30.05,South,191,0.0,2.0,81,0.00,,,0.00,weatherlink.com 1.10,2013-07-04 01:04:00,
2013-07-03 21:19:00,76.5,71.0,30.05,South,191,0.0,0.0,83,0.00,,,0.00,weatherlink.com 1.10,2013-07-04 01:19:00,
2013-07-03 21:34:00,76.3,71.0,30.06,WSW,254,0.0,0.0,83,0.00,,,0.00,weatherlink.com 1.10,2013-07-04 01:34:00,
2013-07-03 22:04:00,75.8,71.0,30.06,SW,231,0.0,0.0,84,0.00,,,0.00,weatherlink.com 1.10,2013-07-04 02:04:00,
2013-07-03 22:19:00,75.8,71.0,30.06,SW,231,0.0,1.0,84,0.00,,,0.00,weatherlink.com 1.10,2013-07-04 02:19:00,
2013-07-03 22:34:00,75.8,71.0,30.07,SSW,198,1.0,1.0,84,0.00,,,0.00,weatherlink.com 1.10,2013-07-04 02:34:00,
2013-07-03 22:49:00,75.6,71.0,30.07,SSW,197,0.0,0.0,85,0.00,,,0.00,weatherlink.com 1.10,2013-07-04 02:49:00,
2013-07-03 23:04:00,75.5,71.0,30.07,SSW,198,0.0,0.0,85,0.00,,,0.00,weatherlink.com 1.10,2013-07-04 03:04:00,
2013-07-03 23:19:00,74.9,71.0,30.07,South,170,0.0,2.0,88,0.00,,,0.00,weatherlink.com 1.10,2013-07-04 03:19:00,
2013-07-03 23:34:00,74.5,71.0,30.07,South,179,0.0,1.0,89,0.00,,,0.00,weatherlink.com 1.10,2013-07-04 03:34:00,
2013-07-03 23:49:00,74.0,71.0,30.07,South,179,0.0,1.0,90,0.00,,,0.00,weatherlink.com 1.10,2013-07-04 03:49:00,